www.pogodaiklimat.ru

Погода и климат >> Архив погоды >> Россия >> Орловская область >> Мценск


ПОГОДА в Мценске

  • Прогноз погоды в Мценске
  • Монитор погоды в Мценске

АРХИВ ПОГОДЫ в Мценске

Время (UTC), дата Ветер
(напр.,м/с)
 
Видим.   Явления Облачность Т
(С)
Тd
(С)
f
(%)
Тe
(С)
Тes
(С)
Комфортность P
(гПа)
Po
(гПа)
Тmin
(С)
Tmax
(С)
R
(мм)
R24
(мм)
S
(см)
21 17.06 штиль 0 10 км 3/0
[Ci fib]
+17.7 +13.9 78 +18 +18 1014.6 991.3
00 18.06 ЮВ 1 4000 м дымка 8/4 600 м
[Sc Ac trans]
+15.4 +13.9 91 +16 +16 1014.4 990.9
03 18.06 штиль 0 8000 м дымка {ливн. осадки} 6/6 600 м
[Cb calv]
+16.7 +15.4 92 +17 +17 1013.8 990.5 +15.3 0.3
06 18.06 ЮЗ 1 24 км {ливн. осадки} 3/0
[Ac trans]
+22.7 +16.7 69 +27 +36 душно 1013.0 990.2 +15.3 0.3
09 18.06 З 1 27 км 6/6 1000 м
[Cu med, cong]
+26.4 +18.1 60 +31 +39 душно 1012.6 990.1
12 18.06 СЗ 3 30 км 8/8 600 м
[Cb calv]
+27.3 +16.7 52 +31 +33 душно 1011.7 989.2
15 18.06 С 2 30 км 8/6 600 м
[Cb calv Ci fib]
+26.1 +16.8 57 +30 +31 душно 1011.8 989.3
18 18.06 СЗ 1 26 км {гроза, ливн. осадки} 8/6 600 м
[Cb calv Ci fib]
+21.9 +16.3 71 +26 +26 душно 1013.4 990.5 +27.6 0.7
21 18.06 С 1 10 км ясно +19.4 +14.6 74 +22 +22 комфорт 1014.5 991.4
00 19.06 СЗ 1 10 км ясно +16.6 +14.1 85 +17 +17 1015.4 992.0
03 19.06 С 1 14 км ясно +16.9 +14.8 87 +18 +19 1015.8 992.4 +14.3
06 19.06 С 2 28 км ясно +21.7 +15.2 67 +25 +34 комфорт 1016.3 993.3 +14.3
09 19.06 С 3 30 км 4/4 1000 м
[Cu med, cong]
+25.4 +11.9 43 +27 +35 жарко 1016.2 993.5
12 19.06 С 2 30 км 5/5 1000 м
[Cu med, cong]
+26.4 +11.7 40 +28 +34 жарко 1015.9 993.3
15 19.06 С 2 30 км 4/4 600 м
[Cu hum]
+25.7 +11.4 41 +27 +29 жарко 1015.6 992.9
18 19.06 штиль 0 28 км ясно +20.3 +12.3 60 +22 +22 комфорт 1015.9 992.8 +26.6
21 19.06 штиль 0 10 км ясно +15.1 +11.8 81 +15 +15 1017.2 993.6
00 20.06 штиль 0 4000 м дымка 3/0
[Ci fib]
+12.8 +11.9 94 +12 +12 1018.0 994.2
03 20.06 штиль 0 11 км ясно +14.4 +12.6 89 +14 +16 1018.2 994.6 +11.9
06 20.06 СВ 1 27 км ясно +23.7 +13.5 53 +26 +37 жарко 1017.4 994.5 +11.9
09 20.06 Ю 2 30 км 3/3 1000 м
[Cu med, cong]
+27.1 +10.2 35 +28 +39 жарко 1017.1 994.4
12 20.06 В 1 30 км 3/3 1000 м
[Cu hum]
+28.5 +10.3 32 +29 +39 жарко 1016.4 993.9
15 20.06 штиль 0 35 км 3/1 1000 м
[Cu med, cong Ci fib]
+28.2 +11.0 34 +29 +33 жарко 1015.8 993.3
18 20.06 штиль 0 29 км 3/0
[Ci fib]
+22.6 +13.8 58 +26 +26 жарко 1016.1 993.2 +29.2
21 20.06 штиль 0 10 км 3/0
[Ci fib]
+16.8 +14.0 84 +17 +17 1017.4 994.0
00 21.06 штиль 0 4000 м дымка 5/0
[Ac trans Ci fib]
+14.5 +13.9 96 +14 +14 1018.3 994.6
03 21.06 ЮВ 1 9000 м дымка 8/0
[Ac trans]
+15.4 +14.0 91 +16 +17 1018.9 995.3 +13.7
06 21.06 Ю 1 25 км 4/0
[Ac trans]
+25.3 +16.7 59 +29 +37 душно 1018.0 995.3 +13.7
09 21.06 Ю 2 30 км 4/3 1000 м
[Cu med, cong Ci fib]
+28.3 +13.5 40 +30 +41 жарко 1017.5 995.0
12 21.06 З 2 30 км 4/4 1000 м
[Cu med, cong]
+29.9 +14.6 39 +32 +40 жарко 1017.1 994.7
15 21.06 Ю 1 30 км 3/3 1000 м
[Cu med, cong]
+29.9 +13.9 38 +32 +35 жарко 1015.8 993.4
18 21.06 штиль 0 26 км 3/0
[Ac trans]
+23.3 +15.7 62 +28 +28 душно 1016.2 993.4 +30.4
21 21.06 штиль 0 10 км 3/0
[Ac trans]
+19.2 +15.0 77 +21 +21 комфорт 1017.3 994.0
00 22.06 штиль 0 10 км 6/0
[Ac trans]
+17.0 +15.0 88 +17 +17 1017.7 994.3
03 22.06 Ю 1 20 км 6/4 600 м
[Sc Ci fib]
+18.1 +15.1 83 +19 +20 1017.7 994.4 +16.2
06 22.06 Ю 1 27 км ясно +27.3 +15.5 48 +30 +41 душно 1017.1 994.6 +16.2
09 22.06 ЮЗ 1 30 км 8/6 600 м
[Cu med, cong Ac trans]
+30.0 +15.4 41 +33 +38 душно 1017.1 994.7
12 22.06 ЮЗ 1 35 км 6/4 600 м
[Cu med, cong Ci fib]
+31.2 +13.3 34 +32 +41 жарко 1016.5 994.2
15 22.06 Ю 1 29 км 4/4 600 м
[Cu med, cong]
+31.2 +13.8 35 +33 +35 жарко 1015.4 993.1
18 22.06 штиль 0 27 км ясно +24.1 +15.8 60 +27 +27 жарко 1015.8 993.0 +32.0
21 22.06 штиль 0 10 км 4/0
[Ac trans]
+20.5 +14.9 70 +23 +23 комфорт 1016.5 993.4
00 23.06 штиль 0 10 км 6/0
[Ac trans]
+17.5 +14.9 85 +17 +17 1017.3 994.0
03 23.06 С 1 17 км 8/4 600 м
[Sc Ac trans]
+18.2 +16.2 88 +20 +20 1018.0 994.7 +16.6
06 23.06 СВ 1 24 км ясно +25.7 +18.5 64 +30 +41 душно 1017.6 995.0 +16.6
09 23.06 С 1 30 км 8/0
[Ac trans Ci fib]
+29.4 +17.1 48 +33 +47 душно 1016.9 994.5
12 23.06 ЮВ 1 30 км 8/6 600 м
[Cb calv Ci fib]
+31.6 +15.6 38 +34 +39 душно 1015.8 993.6
15 23.06 С 2 22 км {гроза, ливн. осадки} 9/8 600 м
[Cb calv Ac trans]
+25.9 +20.4 72 +32 +33 очень
душно
1015.9 993.3 0.5
18 23.06 С 4 16 км гроза без осадков {ливн. осадки} 10/10 600 м
[Cb calv]
+20.2 +14.6 70 +23 +23 комфорт 1018.3 995.2 +32.7 0.5
21 23.06 СВ 3 10 км {гроза} 9/8 600 м
[Cb calv Ac trans]
+17.5 +15.7 89 +17 +17 1019.0 995.7
00 24.06 С 1 4000 м дымка {гроза} 10/6 600 м
[Cb calv Ac und]
+16.0 +15.3 96 +17 +17 1019.2 995.7
03 24.06 С 2 7000 м дымка 9/6 600 м
[Cb calv Ac trans]
+16.7 +15.9 95 +17 +17 1020.1 996.6 +15.9
06 24.06 СВ 2 26 км 5/0
[Ac trans Ci fib]
+19.9 +15.0 73 +23 +29 комфорт 1020.5 997.3 +15.9
09 24.06 С 4 30 км 3/0
[Ac trans Ci fib]
+23.0 +14.8 60 +27 +37 душно 1020.7 997.7
12 24.06 С 3 35 км 8/8 600 м
[Cb calv]
+24.8 +15.2 55 +28 +30 жарко 1020.7 997.9
15 24.06 С 3 35 км 6/6 600 м
[Cb calv]
+24.3 +13.9 52 +27 +28 жарко 1020.6 997.7

 

Местоположение метеостанции Мценск (Орловская область, Россия): широта 53.28 долгота 36.54 высота над уровнем моря 201 м.

В архиве по умолчанию представлена погода в Мценске за последнюю неделю. Архивные данные за месяц целиком и за предыдущие месяцы, начиная с января 2011 года, Вы можете получить, выбрав интересующий диапазон дат из раскрывающегося списка и нажав кнопку "Ввод!".


*Определитесь, кто Вы:
робот инопланетянин человек

Внимание! Время в таблицах - всемирное. Для получения местного времени необходимо прибавить поправку, которая равна 3 ч.

Смотрите также архив погоды в соседних городах и на ближайших метеорологических станциях:

Погода в Болхове (Орловская область, Россия) (38 км)
Погода в Орле (Орловская область, Россия) (53 км)
Погода в Плавске (Тульская область, Россия) (61 км)
Погода в Верховье (Орловская область, Россия) (71 км)
Погода в Суворове (Тульская область, Россия) (95 км)
Погода в Волово (Тульская область, Россия) (102 км)
Погода в Карачеве (Брянская область, Россия) (104 км)
Погода в Ефремове (Тульская область, Россия) (106 км)
Погода в Понырях (Курская область, Россия) (108 км)
Погода в Ливнах (Орловская область, Россия) (118 км)

Пояснения к столбцам:

Ветер - указаны скорость ветра в м/с - средняя за 10 мин, порывы в срок и между сроками (в фигурных скобках) и направление, откуда дует ветер: С - северный, СВ - северо-восточный, В - восточный, ЮВ - юго-восточный, Ю - южный, ЮЗ - юго-западный, З - западный, СЗ - северо-западный.
Видимость - горизонтальная дальность видимости в метрах или километрах. При видимости от 1 до 10 км при отсутствии осадков обычно наблюдается дымка, при ухудшении видимости до 1 км и менее - туман. В сухую погоду видимость может ухудшаться дымом, пылью или мглою.
Явления - указаны атмосферные явления, наблюдавшиеся в срок или в последний час перед сроком; фигурными скобками обозначены явления, наблюдавшиеся между сроками (за 1-3 часа до срока); квадратными скобками обозначены град или гололедные отложения с указанием их диаметра в мм.
Облачность - указаны через наклонную черту общая и нижняя облачность в баллах и высота нижней границы облаков в метрах; квадратными скобками обозначены формы облаков: Ci - перистые, Cs - перисто-слоистые, Cc - перисто-кучевые, Ac - высококучевые, As - высокослоистые, Sc - слоисто-кучевые, Ns - слоисто-дождевые, Cu - кучевые, Cb - кучево-дождевые. Подробнее классификацию облаков см. в Атласе облаков (PDF).
T - Температура воздуха - температура, измеренная на высоте 2 м над землей.
Td - Температура точки росы - температура, при понижении до которой содержащийся в воздухе водяной пар достигнет насыщения.
f - Относительная влажность воздуха - влажноcть воздуха, измеренная на высоте 2 м над землей.
Te - Эффективная температура - температура, которую ощущает одетый по сезону человек в тени. Характеристика душности погоды. При расчете учитывается влияние влажности воздуха и скорости ветра на теплоощущения человека.
Tes - Эффективная температура на солнце - температура, которую ощущает человек, с поправкой на солнечный нагрев. Характеристика знойности погоды. Зависит от высоты солнца над горизонтом, облачности и скорости ветра. Ночью, в пасмурную погоду, а также при ветре 12 м/с и более поправка равна нулю.
P - Атмосферное давление - приведенное к уровню моря атмосферное давление.
Po - Атмосферное давление - измеренное на уровне метеостанции атмосферное давление.
Tmin - Минимальная температура - минимум температуры воздуха на высоте 2 м над землей.
Tmax - Максимальная температура - максимум температуры воздуха на высоте 2 м над землей.
R - Количество осадков - Количество выпавших осадков за период времени, мм. При наведении курсора мыши на число - период времени, за который выпало указанное количество осадков.
R24 - Количество осадков - Количество выпавших осадков за 24 часа, мм.
S - Снежный покров - Высота снежного покрова, см. При наведении курсора мыши на число - состояние снежного покрова и степень покрытия местности в баллах.